Year,Month,Day,Hour,Minute,Value (Times are PST for temperature in C)
2016,06,16,00,00,8.90
2016,06,16,00,01,9.00
2016,06,16,00,02,9.00
2016,06,16,00,03,9.10
2016,06,16,00,04,9.10
2016,06,16,00,05,9.10
2016,06,16,00,06,9.20
2016,06,16,00,07,9.20
2016,06,16,00,08,9.30
2016,06,16,00,09,9.30
2016,06,16,00,10,9.30
2016,06,16,00,11,9.30
2016,06,16,00,12,9.30
2016,06,16,00,13,9.30
2016,06,16,00,14,9.30
2016,06,16,00,15,9.30
2016,06,16,00,16,9.20
2016,06,16,00,17,9.20
2016,06,16,00,18,9.20
2016,06,16,00,19,9.20
2016,06,16,00,20,9.20
2016,06,16,00,21,9.20
2016,06,16,00,22,9.20
2016,06,16,00,23,9.20
2016,06,16,00,24,9.10
2016,06,16,00,25,9.10
2016,06,16,00,26,9.10
2016,06,16,00,27,9.00
2016,06,16,00,28,9.00
2016,06,16,00,29,8.90
2016,06,16,00,30,8.90
2016,06,16,00,31,9.00
2016,06,16,00,32,8.90
2016,06,16,00,33,9.00
2016,06,16,00,34,9.00
2016,06,16,00,35,8.90
2016,06,16,00,36,8.90
2016,06,16,00,37,8.90
2016,06,16,00,38,8.90
2016,06,16,00,39,8.90
2016,06,16,00,40,8.90
2016,06,16,00,41,8.90
2016,06,16,00,42,8.90
2016,06,16,00,43,9.00
2016,06,16,00,44,9.00
2016,06,16,00,45,9.00
2016,06,16,00,46,9.00
2016,06,16,00,47,9.10
2016,06,16,00,48,9.20
2016,06,16,00,49,9.20
2016,06,16,00,50,9.20
2016,06,16,00,51,9.30
2016,06,16,00,52,9.30
2016,06,16,00,53,9.30
2016,06,16,00,54,9.40
2016,06,16,00,55,9.40
2016,06,16,00,56,9.40
2016,06,16,00,57,9.40
2016,06,16,00,58,9.40
2016,06,16,00,59,9.40
2016,06,16,01,00,9.40
2016,06,16,01,01,9.40
2016,06,16,01,02,9.40
2016,06,16,01,03,9.40
2016,06,16,01,04,9.40
2016,06,16,01,05,9.30
2016,06,16,01,06,9.40
2016,06,16,01,07,9.40
2016,06,16,01,08,9.40
2016,06,16,01,09,9.30
2016,06,16,01,10,9.30
2016,06,16,01,11,9.30
2016,06,16,01,12,9.40
2016,06,16,01,13,9.40
2016,06,16,01,14,9.40
2016,06,16,01,15,9.40
2016,06,16,01,16,9.40
2016,06,16,01,17,9.40
2016,06,16,01,18,9.40
2016,06,16,01,19,9.40
2016,06,16,01,20,9.40
2016,06,16,01,21,9.40
2016,06,16,01,22,9.50
2016,06,16,01,23,9.50
2016,06,16,01,24,9.50
2016,06,16,01,25,9.50
2016,06,16,01,26,9.50
2016,06,16,01,27,9.50
2016,06,16,01,28,9.50
2016,06,16,01,29,9.50
2016,06,16,01,30,9.50
2016,06,16,01,31,9.50
2016,06,16,01,32,9.50
2016,06,16,01,33,9.50
2016,06,16,01,34,9.50
2016,06,16,01,35,9.50
2016,06,16,01,36,9.50
2016,06,16,01,37,9.50
2016,06,16,01,38,9.50
2016,06,16,01,39,9.40
2016,06,16,01,40,9.40
2016,06,16,01,41,9.40
2016,06,16,01,42,9.40
2016,06,16,01,43,9.40
2016,06,16,01,44,9.30
2016,06,16,01,45,9.30
2016,06,16,01,46,9.30
2016,06,16,01,47,9.30
2016,06,16,01,48,9.20
2016,06,16,01,49,9.30
2016,06,16,01,50,9.30
2016,06,16,01,51,9.30
2016,06,16,01,52,9.30
2016,06,16,01,53,9.30
2016,06,16,01,54,9.20
2016,06,16,01,55,9.20
2016,06,16,01,56,9.20
2016,06,16,01,57,9.20
2016,06,16,01,58,9.10
2016,06,16,01,59,9.10
2016,06,16,02,00,9.10
2016,06,16,02,01,9.00
2016,06,16,02,02,9.00
2016,06,16,02,03,9.00
2016,06,16,02,04,8.90
2016,06,16,02,05,8.90
2016,06,16,02,06,8.80
2016,06,16,02,07,8.80
2016,06,16,02,08,8.80
2016,06,16,02,09,8.80
2016,06,16,02,10,8.80
2016,06,16,02,11,8.80
2016,06,16,02,12,8.80
2016,06,16,02,13,8.80
2016,06,16,02,14,8.80
2016,06,16,02,15,8.80
2016,06,16,02,16,8.70
2016,06,16,02,17,8.70
2016,06,16,02,18,8.70
2016,06,16,02,19,8.70
2016,06,16,02,20,8.70
2016,06,16,02,21,8.60
2016,06,16,02,22,8.60
2016,06,16,02,23,8.60
2016,06,16,02,24,8.50
2016,06,16,02,25,8.50
2016,06,16,02,26,8.40
2016,06,16,02,27,8.40
2016,06,16,02,28,8.30
2016,06,16,02,29,8.30
2016,06,16,02,30,8.20
2016,06,16,02,31,8.10
2016,06,16,02,32,8.10
2016,06,16,02,33,8.10
2016,06,16,02,34,8.00
2016,06,16,02,35,8.00
2016,06,16,02,36,8.00
2016,06,16,02,37,7.90
2016,06,16,02,38,7.90
2016,06,16,02,39,7.90
2016,06,16,02,40,7.90
2016,06,16,02,41,7.90
2016,06,16,02,42,7.90
2016,06,16,02,43,7.90
2016,06,16,02,44,7.80
2016,06,16,02,45,7.80
2016,06,16,02,46,7.90
2016,06,16,02,47,7.90
2016,06,16,02,48,7.90
2016,06,16,02,49,7.80
2016,06,16,02,50,7.80
2016,06,16,02,51,7.80
2016,06,16,02,52,7.80
2016,06,16,02,53,7.70
2016,06,16,02,54,7.70
2016,06,16,02,55,7.70
2016,06,16,02,56,7.80
2016,06,16,02,57,7.80
2016,06,16,02,58,7.90
2016,06,16,02,59,7.90
2016,06,16,03,00,7.90
2016,06,16,03,01,7.90
2016,06,16,03,02,7.90
2016,06,16,03,03,7.90
2016,06,16,03,04,7.90
2016,06,16,03,05,7.80
2016,06,16,03,06,7.80
2016,06,16,03,07,7.80
2016,06,16,03,08,7.70
2016,06,16,03,09,7.70
2016,06,16,03,10,7.70
2016,06,16,03,11,7.70
2016,06,16,03,12,7.60
2016,06,16,03,13,7.60
2016,06,16,03,14,7.60
2016,06,16,03,15,7.60
2016,06,16,03,16,7.50
2016,06,16,03,17,7.50
2016,06,16,03,18,7.50
2016,06,16,03,19,7.50
2016,06,16,03,20,7.50
2016,06,16,03,21,7.50
2016,06,16,03,22,7.50
2016,06,16,03,23,7.60
2016,06,16,03,24,7.50
2016,06,16,03,25,7.50
2016,06,16,03,26,7.50
2016,06,16,03,27,7.50
2016,06,16,03,28,7.50
2016,06,16,03,29,7.50
2016,06,16,03,30,7.60
2016,06,16,03,31,7.60
2016,06,16,03,32,7.60
2016,06,16,03,33,7.60
2016,06,16,03,34,7.50
2016,06,16,03,35,7.50
2016,06,16,03,36,7.50
2016,06,16,03,37,7.50
2016,06,16,03,38,7.50
2016,06,16,03,39,7.50
2016,06,16,03,40,7.50
2016,06,16,03,41,7.60
2016,06,16,03,42,7.60
2016,06,16,03,43,7.50
2016,06,16,03,44,7.40
2016,06,16,03,45,7.40
2016,06,16,03,46,7.30
2016,06,16,03,47,7.30
2016,06,16,03,48,7.30
2016,06,16,03,49,7.30
2016,06,16,03,50,7.30
2016,06,16,03,51,7.30
2016,06,16,03,52,7.30
2016,06,16,03,53,7.30
2016,06,16,03,54,7.30
2016,06,16,03,55,7.20
2016,06,16,03,56,7.20
2016,06,16,03,57,7.20
2016,06,16,03,58,7.20
2016,06,16,03,59,7.20
2016,06,16,04,00,7.10
2016,06,16,04,01,7.10
2016,06,16,04,02,7.10
2016,06,16,04,03,7.10
2016,06,16,04,04,7.00
2016,06,16,04,05,7.00
2016,06,16,04,06,7.00
2016,06,16,04,07,7.00
2016,06,16,04,08,7.00
2016,06,16,04,09,6.90
2016,06,16,04,10,6.90
2016,06,16,04,11,6.90
2016,06,16,04,12,6.90
2016,06,16,04,13,6.90
2016,06,16,04,14,6.90
2016,06,16,04,15,6.90
2016,06,16,04,16,6.90
2016,06,16,04,17,6.90
2016,06,16,04,18,6.80
2016,06,16,04,19,6.80
2016,06,16,04,20,6.80
2016,06,16,04,21,6.80
2016,06,16,04,22,6.70
2016,06,16,04,23,6.70
2016,06,16,04,24,6.70
2016,06,16,04,25,6.70
2016,06,16,04,26,6.70
2016,06,16,04,27,6.70
2016,06,16,04,28,6.70
2016,06,16,04,29,6.70
2016,06,16,04,30,6.70
2016,06,16,04,31,6.60
2016,06,16,04,32,6.70
2016,06,16,04,33,6.70
2016,06,16,04,34,6.60
2016,06,16,04,35,6.60
2016,06,16,04,36,6.60
2016,06,16,04,37,6.50
2016,06,16,04,38,6.50
2016,06,16,04,39,6.50
2016,06,16,04,40,6.50
2016,06,16,04,41,6.50
2016,06,16,04,42,6.50
2016,06,16,04,43,6.60
2016,06,16,04,44,6.60
2016,06,16,04,45,6.60
2016,06,16,04,46,6.60
2016,06,16,04,47,6.60
2016,06,16,04,48,6.50
2016,06,16,04,49,6.50
2016,06,16,04,50,6.50
2016,06,16,04,51,6.50
2016,06,16,04,52,6.50
2016,06,16,04,53,6.50
2016,06,16,04,54,6.40
2016,06,16,04,55,6.40
2016,06,16,04,56,6.40
2016,06,16,04,57,6.40
2016,06,16,04,58,6.40
2016,06,16,04,59,6.40
2016,06,16,05,00,6.40
2016,06,16,05,01,6.40
2016,06,16,05,02,6.40
2016,06,16,05,03,6.40
2016,06,16,05,04,6.30
2016,06,16,05,05,6.30
2016,06,16,05,06,6.30
2016,06,16,05,07,6.30
2016,06,16,05,08,6.30
2016,06,16,05,09,6.40
2016,06,16,05,10,6.40
2016,06,16,05,11,6.40
2016,06,16,05,12,6.50
2016,06,16,05,13,6.50
2016,06,16,05,14,6.60
2016,06,16,05,15,6.60
2016,06,16,05,16,6.70
2016,06,16,05,17,6.70
2016,06,16,05,18,6.70
2016,06,16,05,19,6.70
2016,06,16,05,20,6.70
2016,06,16,05,21,6.70
2016,06,16,05,22,6.70
2016,06,16,05,23,6.70
2016,06,16,05,24,6.60
2016,06,16,05,25,6.60
2016,06,16,05,26,6.70
2016,06,16,05,27,6.70
2016,06,16,05,28,6.70
2016,06,16,05,29,6.60
2016,06,16,05,30,6.60
2016,06,16,05,31,6.60
2016,06,16,05,32,6.60
2016,06,16,05,33,6.60
2016,06,16,05,34,6.60
2016,06,16,05,35,6.60
2016,06,16,05,36,6.70
2016,06,16,05,37,6.70
2016,06,16,05,38,6.70
2016,06,16,05,39,6.70
2016,06,16,05,40,6.60
2016,06,16,05,41,6.60
2016,06,16,05,42,6.60
2016,06,16,05,43,6.60
2016,06,16,05,44,6.60
2016,06,16,05,45,6.60
2016,06,16,05,46,6.60
2016,06,16,05,47,6.60
2016,06,16,05,48,6.60
2016,06,16,05,49,6.60
2016,06,16,05,50,6.60
2016,06,16,05,51,6.60
2016,06,16,05,52,6.70
2016,06,16,05,53,6.70
2016,06,16,05,54,6.80
2016,06,16,05,55,6.90
2016,06,16,05,56,6.90
2016,06,16,05,57,7.00
2016,06,16,05,58,7.00
2016,06,16,05,59,7.00
2016,06,16,06,00,7.10
2016,06,16,06,01,7.20
2016,06,16,06,02,7.20
2016,06,16,06,03,7.30
2016,06,16,06,04,7.30
2016,06,16,06,05,7.40
2016,06,16,06,06,7.40
2016,06,16,06,07,7.50
2016,06,16,06,08,7.50
2016,06,16,06,09,7.50
2016,06,16,06,10,7.60
2016,06,16,06,11,7.60
2016,06,16,06,12,7.60
2016,06,16,06,13,7.70
2016,06,16,06,14,7.70
2016,06,16,06,15,7.80
2016,06,16,06,16,7.80
2016,06,16,06,17,7.80
2016,06,16,06,18,7.90
2016,06,16,06,19,7.90
2016,06,16,06,20,7.90
2016,06,16,06,21,8.00
2016,06,16,06,22,8.00
2016,06,16,06,23,8.10
2016,06,16,06,24,8.10
2016,06,16,06,25,8.20
2016,06,16,06,26,8.20
2016,06,16,06,27,8.20
2016,06,16,06,28,8.30
2016,06,16,06,29,8.30
2016,06,16,06,30,8.30
2016,06,16,06,31,8.30
2016,06,16,06,32,8.30
2016,06,16,06,33,8.30
2016,06,16,06,34,8.30
2016,06,16,06,35,8.30
2016,06,16,06,36,8.40
2016,06,16,06,37,8.40
2016,06,16,06,38,8.50
2016,06,16,06,39,8.50
2016,06,16,06,40,8.60
2016,06,16,06,41,8.70
2016,06,16,06,42,8.70
2016,06,16,06,43,8.80
2016,06,16,06,44,8.90
2016,06,16,06,45,8.90
2016,06,16,06,46,9.00
2016,06,16,06,47,9.10
2016,06,16,06,48,9.10
2016,06,16,06,49,9.20
2016,06,16,06,50,9.20
2016,06,16,06,51,9.30
2016,06,16,06,52,9.30
2016,06,16,06,53,9.40
2016,06,16,06,54,9.50
2016,06,16,06,55,9.50
2016,06,16,06,56,9.60
2016,06,16,06,57,9.70
2016,06,16,06,58,9.70
2016,06,16,06,59,9.70
2016,06,16,07,00,9.80
2016,06,16,07,01,9.80
2016,06,16,07,02,9.90
2016,06,16,07,03,10.00
2016,06,16,07,04,10.10
2016,06,16,07,05,10.10
2016,06,16,07,06,10.20
2016,06,16,07,07,10.30
2016,06,16,07,08,10.30
2016,06,16,07,09,10.40
2016,06,16,07,10,10.40
2016,06,16,07,11,10.50
2016,06,16,07,12,10.50
2016,06,16,07,13,10.60
2016,06,16,07,14,10.60
2016,06,16,07,15,10.70
2016,06,16,07,16,10.70
2016,06,16,07,17,10.80
2016,06,16,07,18,10.80
2016,06,16,07,19,10.90
2016,06,16,07,20,10.90
2016,06,16,07,21,11.00
2016,06,16,07,22,11.10
2016,06,16,07,23,11.10
2016,06,16,07,24,11.20
2016,06,16,07,25,11.20
2016,06,16,07,26,11.30
2016,06,16,07,27,11.30
2016,06,16,07,28,11.40
2016,06,16,07,29,11.40
2016,06,16,07,30,11.50
2016,06,16,07,31,11.50
2016,06,16,07,32,11.60
2016,06,16,07,33,11.60
2016,06,16,07,34,11.70
2016,06,16,07,35,11.70
2016,06,16,07,36,11.80
2016,06,16,07,37,11.80
2016,06,16,07,38,11.90
2016,06,16,07,39,11.90
2016,06,16,07,40,11.90
2016,06,16,07,41,12.00
2016,06,16,07,42,12.00
2016,06,16,07,43,12.10
2016,06,16,07,44,12.20
2016,06,16,07,45,12.20
2016,06,16,07,46,12.20
2016,06,16,07,47,12.30
2016,06,16,07,48,12.30
2016,06,16,07,49,12.30
2016,06,16,07,50,12.40
2016,06,16,07,51,12.50
2016,06,16,07,52,12.50
2016,06,16,07,53,12.60
2016,06,16,07,54,12.70
2016,06,16,07,55,12.70
2016,06,16,07,56,12.80
2016,06,16,07,57,12.80
2016,06,16,07,58,12.90
2016,06,16,07,59,12.90
2016,06,16,08,00,13.00
2016,06,16,08,01,13.00
2016,06,16,08,02,13.10
2016,06,16,08,03,13.10
2016,06,16,08,04,13.10
2016,06,16,08,05,13.10
2016,06,16,08,06,13.20
2016,06,16,08,07,13.20
2016,06,16,08,08,13.20
2016,06,16,08,09,13.20
2016,06,16,08,10,13.30
2016,06,16,08,11,13.30
2016,06,16,08,12,13.40
2016,06,16,08,13,13.40
2016,06,16,08,14,13.50
2016,06,16,08,15,13.60
2016,06,16,08,16,13.60
2016,06,16,08,17,13.60
2016,06,16,08,18,13.70
2016,06,16,08,19,13.70
2016,06,16,08,20,13.70
2016,06,16,08,21,13.70
2016,06,16,08,22,13.70
2016,06,16,08,23,13.70
2016,06,16,08,24,13.70
2016,06,16,08,25,13.80
2016,06,16,08,26,13.80
2016,06,16,08,27,13.80
2016,06,16,08,28,13.80
2016,06,16,08,29,13.90
2016,06,16,08,30,13.90
2016,06,16,08,31,13.90
2016,06,16,08,32,13.90
2016,06,16,08,33,13.90
2016,06,16,08,34,13.80
2016,06,16,08,35,13.80
2016,06,16,08,36,13.70
2016,06,16,08,37,13.70
2016,06,16,08,38,13.70
2016,06,16,08,39,13.60
2016,06,16,08,40,13.60
2016,06,16,08,41,13.60
2016,06,16,08,42,13.60
2016,06,16,08,43,13.50
2016,06,16,08,44,13.50
2016,06,16,08,45,13.40
2016,06,16,08,46,13.40
2016,06,16,08,47,13.40
2016,06,16,08,48,13.50
2016,06,16,08,49,13.50
2016,06,16,08,50,13.50
2016,06,16,08,51,13.50
2016,06,16,08,52,13.40
2016,06,16,08,53,13.40
2016,06,16,08,54,13.40
2016,06,16,08,55,13.40
2016,06,16,08,56,13.40
2016,06,16,08,57,13.30
2016,06,16,08,58,13.30
2016,06,16,08,59,13.20
2016,06,16,09,00,13.20
2016,06,16,09,01,13.20
2016,06,16,09,02,13.20
2016,06,16,09,03,13.20
2016,06,16,09,04,13.30
2016,06,16,09,05,13.20
2016,06,16,09,06,13.20
2016,06,16,09,07,13.30
2016,06,16,09,08,13.20
2016,06,16,09,09,13.20
2016,06,16,09,10,13.20
2016,06,16,09,11,13.20
2016,06,16,09,12,13.20
2016,06,16,09,13,13.20
2016,06,16,09,14,13.20
2016,06,16,09,15,13.20
2016,06,16,09,16,13.20
2016,06,16,09,17,13.20
2016,06,16,09,18,13.20
2016,06,16,09,19,13.20
2016,06,16,09,20,13.20
2016,06,16,09,21,13.20
2016,06,16,09,22,13.20
2016,06,16,09,23,13.20
2016,06,16,09,24,13.20
2016,06,16,09,25,13.30
2016,06,16,09,26,13.30
2016,06,16,09,27,13.30
2016,06,16,09,28,13.40
2016,06,16,09,29,13.50
2016,06,16,09,30,13.50
2016,06,16,09,31,13.50
2016,06,16,09,32,13.50
2016,06,16,09,33,13.40
2016,06,16,09,34,13.30
2016,06,16,09,35,13.30
2016,06,16,09,36,13.30
2016,06,16,09,37,13.40
2016,06,16,09,38,13.40
2016,06,16,09,39,13.40
2016,06,16,09,40,13.40
2016,06,16,09,41,13.40
2016,06,16,09,42,13.40
2016,06,16,09,43,13.50
2016,06,16,09,44,13.50
2016,06,16,09,45,13.50
2016,06,16,09,46,13.50
2016,06,16,09,47,13.40
2016,06,16,09,48,13.40
2016,06,16,09,49,13.30
2016,06,16,09,50,13.30
2016,06,16,09,51,13.40
2016,06,16,09,52,13.40
2016,06,16,09,53,13.50
2016,06,16,09,54,13.60
2016,06,16,09,55,13.60
2016,06,16,09,56,13.60
2016,06,16,09,57,13.60
2016,06,16,09,58,13.60
2016,06,16,09,59,13.70
2016,06,16,10,00,13.70
2016,06,16,10,01,13.70
2016,06,16,10,02,13.60
2016,06,16,10,03,13.60
2016,06,16,10,04,13.50
2016,06,16,10,05,13.40
2016,06,16,10,06,13.40
2016,06,16,10,07,13.40
2016,06,16,10,08,13.50
2016,06,16,10,09,13.50
2016,06,16,10,10,13.50
2016,06,16,10,11,13.50
2016,06,16,10,12,13.50
2016,06,16,10,13,13.60
2016,06,16,10,14,13.60
2016,06,16,10,15,13.60
2016,06,16,10,16,13.60
2016,06,16,10,17,13.60
2016,06,16,10,18,13.60
2016,06,16,10,19,13.60
2016,06,16,10,20,13.70
2016,06,16,10,21,13.70
2016,06,16,10,22,13.70
2016,06,16,10,23,13.70
2016,06,16,10,24,13.70
2016,06,16,10,25,13.70
2016,06,16,10,26,13.70
2016,06,16,10,27,13.70
2016,06,16,10,28,13.70
2016,06,16,10,29,13.70
2016,06,16,10,30,13.70
2016,06,16,10,31,13.60
2016,06,16,10,32,13.60
2016,06,16,10,33,13.60
2016,06,16,10,34,13.50
2016,06,16,10,35,13.60
2016,06,16,10,36,13.60
2016,06,16,10,37,13.70
2016,06,16,10,38,13.70
2016,06,16,10,39,13.70
2016,06,16,10,40,13.80
2016,06,16,10,41,13.90
2016,06,16,10,42,14.00
2016,06,16,10,43,14.00
2016,06,16,10,44,14.00
2016,06,16,10,45,14.00
2016,06,16,10,46,14.00
2016,06,16,10,47,14.00
2016,06,16,10,48,13.90
2016,06,16,10,49,13.90
2016,06,16,10,50,13.80
2016,06,16,10,51,13.70
2016,06,16,10,52,13.70
2016,06,16,10,53,13.70
2016,06,16,10,54,13.80
2016,06,16,10,55,13.80
2016,06,16,10,56,13.80
2016,06,16,10,57,13.90
2016,06,16,10,58,13.90
2016,06,16,10,59,13.90
2016,06,16,11,00,13.90
2016,06,16,11,01,13.90
2016,06,16,11,02,14.00
2016,06,16,11,03,14.00
2016,06,16,11,04,14.10
2016,06,16,11,05,14.20
2016,06,16,11,06,14.20
2016,06,16,11,07,14.20
2016,06,16,11,08,14.20
2016,06,16,11,09,14.10
2016,06,16,11,10,14.10
2016,06,16,11,11,14.00
2016,06,16,11,12,14.10
2016,06,16,11,13,14.10
2016,06,16,11,14,14.10
2016,06,16,11,15,14.20
2016,06,16,11,16,14.30
2016,06,16,11,17,14.40
2016,06,16,11,18,14.50
2016,06,16,11,19,14.60
2016,06,16,11,20,14.60
2016,06,16,11,21,14.60
2016,06,16,11,22,14.70
2016,06,16,11,23,14.70
2016,06,16,11,24,14.80
2016,06,16,11,25,14.80
2016,06,16,11,26,14.80
2016,06,16,11,27,14.80
2016,06,16,11,28,14.80
2016,06,16,11,29,14.80
2016,06,16,11,30,14.80
2016,06,16,11,31,14.80
2016,06,16,11,32,14.80
2016,06,16,11,33,14.80
2016,06,16,11,34,14.90
2016,06,16,11,35,14.90
2016,06,16,11,36,14.90
2016,06,16,11,37,14.80
2016,06,16,11,38,14.80
2016,06,16,11,39,14.70
2016,06,16,11,40,14.60
2016,06,16,11,41,14.60
2016,06,16,11,42,14.60
2016,06,16,11,43,14.60
2016,06,16,11,44,14.50
2016,06,16,11,45,14.50
2016,06,16,11,46,14.50
2016,06,16,11,47,14.60
2016,06,16,11,48,14.50
2016,06,16,11,49,14.50
2016,06,16,11,50,14.50
2016,06,16,11,51,14.60
2016,06,16,11,52,14.70
2016,06,16,11,53,14.70
2016,06,16,11,54,14.70
2016,06,16,11,55,14.60
2016,06,16,11,56,14.50
2016,06,16,11,57,14.50
2016,06,16,11,58,14.50
2016,06,16,11,59,14.60
2016,06,16,12,00,14.50
2016,06,16,12,01,14.50
2016,06,16,12,02,14.40
2016,06,16,12,03,14.40
2016,06,16,12,04,14.50
2016,06,16,12,05,14.60
2016,06,16,12,06,14.60
2016,06,16,12,07,14.70
2016,06,16,12,08,14.70
2016,06,16,12,09,14.70
2016,06,16,12,10,14.70
2016,06,16,12,11,14.70
2016,06,16,12,12,14.70
2016,06,16,12,13,14.80
2016,06,16,12,14,14.80
2016,06,16,12,15,14.70
2016,06,16,12,16,14.70
2016,06,16,12,17,14.80
2016,06,16,12,18,14.90
2016,06,16,12,19,15.00
2016,06,16,12,20,15.10
2016,06,16,12,21,15.10
2016,06,16,12,22,15.10
2016,06,16,12,23,15.20
2016,06,16,12,24,15.10
2016,06,16,12,25,15.10
2016,06,16,12,26,15.10
2016,06,16,12,27,15.20
2016,06,16,12,28,15.20
2016,06,16,12,29,15.30
2016,06,16,12,30,15.30
2016,06,16,12,31,15.30
2016,06,16,12,32,15.30
2016,06,16,12,33,15.20
2016,06,16,12,34,15.20
2016,06,16,12,35,15.30
2016,06,16,12,36,15.20
2016,06,16,12,37,15.20
2016,06,16,12,38,15.10
2016,06,16,12,39,15.10
2016,06,16,12,40,15.10
2016,06,16,12,41,15.10
2016,06,16,12,42,15.20
2016,06,16,12,43,15.20
2016,06,16,12,44,15.20
2016,06,16,12,45,15.30
2016,06,16,12,46,15.40
2016,06,16,12,47,15.50
2016,06,16,12,48,15.60
2016,06,16,12,49,15.50
2016,06,16,12,50,15.40
2016,06,16,12,51,15.40
2016,06,16,12,52,15.30
2016,06,16,12,53,15.20
2016,06,16,12,54,15.20
2016,06,16,12,55,15.20
2016,06,16,12,56,15.10
2016,06,16,12,57,15.10
2016,06,16,12,58,15.10
2016,06,16,12,59,15.10
2016,06,16,13,00,15.20
2016,06,16,13,01,15.10
2016,06,16,13,02,15.10
2016,06,16,13,03,15.10
2016,06,16,13,04,15.10
2016,06,16,13,05,15.00
2016,06,16,13,06,15.00
2016,06,16,13,07,15.00
2016,06,16,13,08,15.00
2016,06,16,13,09,15.10
2016,06,16,13,10,15.20
2016,06,16,13,11,15.20
2016,06,16,13,12,15.20
2016,06,16,13,13,15.20
2016,06,16,13,14,15.20
2016,06,16,13,15,15.30
2016,06,16,13,16,15.20
2016,06,16,13,17,15.20
2016,06,16,13,18,15.30
2016,06,16,13,19,15.30
2016,06,16,13,20,15.30
2016,06,16,13,21,15.30
2016,06,16,13,22,15.40
2016,06,16,13,23,15.40
2016,06,16,13,24,15.50
2016,06,16,13,25,15.60
2016,06,16,13,26,15.60
2016,06,16,13,27,15.60
2016,06,16,13,28,15.60
2016,06,16,13,29,15.70
2016,06,16,13,30,15.70
2016,06,16,13,31,15.80
2016,06,16,13,32,15.80
2016,06,16,13,33,15.90
2016,06,16,13,34,16.00
2016,06,16,13,35,16.20
2016,06,16,13,36,16.30
2016,06,16,13,37,16.30
2016,06,16,13,38,16.30
2016,06,16,13,39,16.30
2016,06,16,13,40,16.30
2016,06,16,13,41,16.30
2016,06,16,13,42,16.20
2016,06,16,13,43,16.20
2016,06,16,13,44,16.20
2016,06,16,13,45,16.30
2016,06,16,13,46,16.40
2016,06,16,13,47,16.40
2016,06,16,13,48,16.30
2016,06,16,13,49,16.30
2016,06,16,13,50,16.40
2016,06,16,13,51,16.40
2016,06,16,13,52,16.40
2016,06,16,13,53,16.40
2016,06,16,13,54,16.50
2016,06,16,13,55,16.50
2016,06,16,13,56,16.60
2016,06,16,13,57,16.60
2016,06,16,13,58,16.60
2016,06,16,13,59,16.70
2016,06,16,14,00,16.70
2016,06,16,14,01,16.80
2016,06,16,14,02,16.80
2016,06,16,14,03,16.90
2016,06,16,14,04,16.80
2016,06,16,14,05,16.80
2016,06,16,14,06,16.70
2016,06,16,14,07,16.70
2016,06,16,14,08,16.70
2016,06,16,14,09,16.80
2016,06,16,14,10,16.80
2016,06,16,14,11,16.80
2016,06,16,14,12,16.80
2016,06,16,14,13,16.80
2016,06,16,14,14,16.80
2016,06,16,14,15,16.70
2016,06,16,14,16,16.70
2016,06,16,14,17,16.70
2016,06,16,14,18,16.70
2016,06,16,14,19,16.70
2016,06,16,14,20,16.90
2016,06,16,14,21,17.00
2016,06,16,14,22,17.10
2016,06,16,14,23,17.20
2016,06,16,14,24,17.20
2016,06,16,14,25,17.20
2016,06,16,14,26,17.20
2016,06,16,14,27,17.20
2016,06,16,14,28,17.10
2016,06,16,14,29,17.00
2016,06,16,14,30,17.00
2016,06,16,14,31,16.90
2016,06,16,14,32,16.90
2016,06,16,14,33,16.90
2016,06,16,14,34,16.80
2016,06,16,14,35,16.80
2016,06,16,14,36,16.70
2016,06,16,14,37,16.70
2016,06,16,14,38,16.70
2016,06,16,14,39,16.70
2016,06,16,14,40,16.60
2016,06,16,14,41,16.50
2016,06,16,14,42,16.40
2016,06,16,14,43,16.40
2016,06,16,14,44,16.50
2016,06,16,14,45,16.60
2016,06,16,14,46,16.60
2016,06,16,14,47,16.60
2016,06,16,14,48,16.70
2016,06,16,14,49,16.70
2016,06,16,14,50,16.70
2016,06,16,14,51,16.70
2016,06,16,14,52,16.70
2016,06,16,14,53,16.70
2016,06,16,14,54,16.70
2016,06,16,14,55,16.60
2016,06,16,14,56,16.60
2016,06,16,14,57,16.50
2016,06,16,14,58,16.50
2016,06,16,14,59,16.40
2016,06,16,15,00,16.50
2016,06,16,15,01,16.60
2016,06,16,15,02,16.70
2016,06,16,15,03,16.90
2016,06,16,15,04,17.00
2016,06,16,15,05,17.10
2016,06,16,15,06,17.20
2016,06,16,15,07,17.30
2016,06,16,15,08,17.20
2016,06,16,15,09,17.10
2016,06,16,15,10,17.00
2016,06,16,15,11,16.90
2016,06,16,15,12,16.90
2016,06,16,15,13,16.90
2016,06,16,15,14,16.80
2016,06,16,15,15,16.70
2016,06,16,15,16,16.50
2016,06,16,15,17,16.40
2016,06,16,15,18,16.40
2016,06,16,15,19,16.30
2016,06,16,15,20,16.30
2016,06,16,15,21,16.30
2016,06,16,15,22,16.30
2016,06,16,15,23,16.20
2016,06,16,15,24,16.20
2016,06,16,15,25,16.20
2016,06,16,15,26,16.20
2016,06,16,15,27,16.10
2016,06,16,15,28,16.10
2016,06,16,15,29,16.10
2016,06,16,15,30,16.10
2016,06,16,15,31,16.20
2016,06,16,15,32,16.20
2016,06,16,15,33,16.20
2016,06,16,15,34,16.20
2016,06,16,15,35,16.20
2016,06,16,15,36,16.10
2016,06,16,15,37,16.20
2016,06,16,15,38,16.20
2016,06,16,15,39,16.20
2016,06,16,15,40,16.20
2016,06,16,15,41,16.30
2016,06,16,15,42,16.30
2016,06,16,15,43,16.30
2016,06,16,15,44,16.30
2016,06,16,15,45,16.30
2016,06,16,15,46,16.20
2016,06,16,15,47,16.20
2016,06,16,15,48,16.20
2016,06,16,15,49,16.20
2016,06,16,15,50,16.10
2016,06,16,15,51,16.10
2016,06,16,15,52,16.10
2016,06,16,15,53,16.10
2016,06,16,15,54,16.10
2016,06,16,15,55,16.10
2016,06,16,15,56,16.10
2016,06,16,15,57,16.10
2016,06,16,15,58,16.20
2016,06,16,15,59,16.20
2016,06,16,16,00,16.20
2016,06,16,16,01,16.20
2016,06,16,16,02,16.20
2016,06,16,16,03,16.20
2016,06,16,16,04,16.10
2016,06,16,16,05,16.10
2016,06,16,16,06,16.00
2016,06,16,16,07,15.90
2016,06,16,16,08,15.80
2016,06,16,16,09,15.80
2016,06,16,16,10,15.70
2016,06,16,16,11,15.60
2016,06,16,16,12,15.50
2016,06,16,16,13,15.50
2016,06,16,16,14,15.40
2016,06,16,16,15,15.40
2016,06,16,16,16,15.40
2016,06,16,16,17,15.30
2016,06,16,16,18,15.30
2016,06,16,16,19,15.30
2016,06,16,16,20,15.40
2016,06,16,16,21,15.40
2016,06,16,16,22,15.40
2016,06,16,16,23,15.40
2016,06,16,16,24,15.30
2016,06,16,16,25,15.30
2016,06,16,16,26,15.20
2016,06,16,16,27,15.20
2016,06,16,16,28,15.10
2016,06,16,16,29,15.00
2016,06,16,16,30,15.00
2016,06,16,16,31,15.10
2016,06,16,16,32,15.10
2016,06,16,16,33,15.10
2016,06,16,16,34,15.10
2016,06,16,16,35,15.10
2016,06,16,16,36,15.00
2016,06,16,16,37,15.00
2016,06,16,16,38,15.00
2016,06,16,16,39,15.00
2016,06,16,16,40,15.00
2016,06,16,16,41,15.10
2016,06,16,16,42,15.10
2016,06,16,16,43,15.20
2016,06,16,16,44,15.20
2016,06,16,16,45,15.20
2016,06,16,16,46,15.30
2016,06,16,16,47,15.40
2016,06,16,16,48,15.40
2016,06,16,16,49,15.40
2016,06,16,16,50,15.50
2016,06,16,16,51,15.60
2016,06,16,16,52,15.60
2016,06,16,16,53,15.60
2016,06,16,16,54,15.70
2016,06,16,16,55,15.80
2016,06,16,16,56,15.90
2016,06,16,16,57,15.90
2016,06,16,16,58,16.00
2016,06,16,16,59,16.00
2016,06,16,17,00,16.00
2016,06,16,17,01,16.10
2016,06,16,17,02,16.10
2016,06,16,17,03,16.10
2016,06,16,17,04,16.20
2016,06,16,17,05,16.30
2016,06,16,17,06,16.50
2016,06,16,17,07,16.60
2016,06,16,17,08,16.70
2016,06,16,17,09,16.70
2016,06,16,17,10,16.70
2016,06,16,17,11,16.70
2016,06,16,17,12,16.60
2016,06,16,17,13,16.60
2016,06,16,17,14,16.60
2016,06,16,17,15,16.50
2016,06,16,17,16,16.50
2016,06,16,17,17,16.50
2016,06,16,17,18,16.50
2016,06,16,17,19,16.40
2016,06,16,17,20,16.40
2016,06,16,17,21,16.40
2016,06,16,17,22,16.30
2016,06,16,17,23,16.30
2016,06,16,17,24,16.40
2016,06,16,17,25,16.40
2016,06,16,17,26,16.40
2016,06,16,17,27,16.40
2016,06,16,17,28,16.40
2016,06,16,17,29,16.40
2016,06,16,17,30,16.40
2016,06,16,17,31,16.40
2016,06,16,17,32,16.40
2016,06,16,17,33,16.40
2016,06,16,17,34,16.40
2016,06,16,17,35,16.50
2016,06,16,17,36,16.50
2016,06,16,17,37,16.50